User: anonymous   Login
Location: Caltech
(34.1382°N, 118.1253°W)
Time: 12:20:26
(UTC-08:00)
Language:

SEDSat Delta rocket - Orbit

View from above orbital plane
View from above orbital plane
View from above satellite
View from above satellite

Ground track
Ground track

The orbit data is extracted from the following two-line orbital elements,

1 25510U 98061C   15024.56014244  .00001423  00000-0  24028-3 0   546
2 25510 031.4372 114.2689 0331488 248.4929 235.4682 14.36289252851423
Epoch (UTC): 24 January 2015 13:26:36
Eccentricity: 0.0331488
inclination: 31.4372°
perigee height: 534 km
apogee height: 1008 km
right ascension of ascending node: 114.2689°
argument of perigee: 248.4929°
revolutions per day: 14.36289252
mean anomaly at epoch: 235.4682°
orbit number at epoch: 85142

The dashed part of the orbit path shows where the satellite is in the earth's shadow,  

DLR